Starlink 11285

operational
NORAD ID: 61578 Int'l Des: 2024-187 Owner: SPXS Country: US Constellation: starlink
LEOCIRCULAR

About Starlink 11285

Description loading...

Live Position

Loading 3D Globe...

Upcoming Passes

Altitude History

Altitude vs Time

uPlot chart will show altitude changes over time

Two-Line Element Set

1 61578U 24187E 25308.39203113 -.00000463 00000-0 10417-5 0 9991
2 61578 53.1584 193.7245 0001382 65.3772 294.7390 15.69706301 61021
Epoch: Nov 4, 2025 • Age: 14 hours

Current Status

Altitude 365.4 km
Velocity 7.70 km/s
Sub-Earth Point 53.23°N, 120.97°W
Launch Date Oct 18, 2024
Age 1 years
Type internet

Technical Details

Classification Payload
Mass 960.00 kg
Dry Mass 910.00 kg
Total Mass 960.00 kg
Length 0.30 m
Diameter 4.10 m
Span 29.00 m
Shape Box + pan
Manufacturer SPXS
Bus Type Starlink V2MD
Phase Status In Orbit
Owner/State SPXS/US

Large Constellations

Loading constellations...